Regional Weather Roundup
Issued by NWS Wakefield, VA

Home | Current Version | Previous Version | Graphics & Text | Print | Product List | Glossary On
Versions: 1 2 3 4 5 6 7 8 9 10 11 12 13 14 15 16 17 18 19 20 21 22 23 24 25 26 27 28 29 30 31 32 33 34 35 36 37 38 39 40 41 42 43 44 45 46 47 48 49 50
535
ASUS41 KAKQ 192115
RWRAKQ

REGIONAL WEATHER ROUNDUP
NATIONAL WEATHER SERVICE WAKEFIELD VA
400 PM EST THU JAN 19 2017

Note: "fair" indicates few or no clouds below 12,000 feet with no
significant weather and/or obstructions to visibility. * = Denotes
station may not report precipitation (e.g., rain,snow,etc.),
thunder or fog.

VAZ042-051-052>054-056-192200-
NORTHERN VIRGINIA

CITY           SKY/WX    TMP DP  RH WIND       PRES   REMARKS
WASH NATIONAL  CLOUDY    52  38  58 NE5       30.03S
DULLES         CLOUDY    51  36  56 NW7       30.03R
FORT BELVOIR   CLOUDY    52  37  55 CALM      30.03R
QUANTICO       CLOUDY    49  39  68 CALM      30.03F
FREDERICKSBRG* CLOUDY    54  39  58 CALM      30.01S
STAFFORD*      MOSUNNY   51  38  60 CALM      30.05F
WARRENTON      CLOUDY    53  34  49 CALM      30.00F
CULPEPER*      CLOUDY    53  38  58 CALM      30.02S
MANASSAS*      SUNNY    N/A N/A N/A CALM      30.04R
LEESBURG*      CLOUDY    52  39  62 CALM      30.03R
WINCHESTER     CLOUDY    48  36  61 CALM      30.00F
FRONT ROYAL*   FAIR      50  37  62 NE3       29.98F
LURAY*         FAIR      52  41  66 CALM      29.99S
$$

VAZ048-049-060>072-079>083-192200-
CENTRAL AND SOUTH CENTRAL VIRGINIA

CITY           SKY/WX    TMP DP  RH WIND       PRES   REMARKS
RICHMOND       CLOUDY    54  38  54 W3        30.03R
CHESTERFIELD*  FAIR      55  28  35 W6        30.03R
PETERSBURG*    CLOUDY    55  37  50 S3        30.03R
HANOVER        MOSUNNY   54  37  52 W5        30.03S
TAPPAHANNOCK*  MOSUNNY   52  32  46 NE3       30.02S
QUINTON*       FAIR      53  38  58 W7        30.01S
CHARLOTTSVILLE MOSUNNY   55  39  54 S5        29.99S
GORDONSVILLE*  FAIR      53  39  60 CALM      30.00S
ORANGE*          N/A     54  37  54 CALM      30.02F
LOUISA*        CLOUDY    55  43  62 CALM      30.00S
BUMPASS*       FAIR      52  38  59 W8        30.02R
FARMVILLE*     MOSUNNY   59  40  50 CALM      30.00F
CREWE*         FAIR      58  39  49 S3        30.00F
FORT PICKETT*  FAIR      57  31  36 CALM      30.01F
CHASE CITY*    FAIR      56  37  47 S3        30.02S
CLARKSVILLE*   FAIR      57  39  51 CALM      30.02S
SOUTH HILL*    SUNNY     56  41  57 SW6       30.08F
LAWRENCEVILLE* FAIR      57  38  48 SW6       30.02S
EMPORIA*       CLOUDY    55  37  50 SW3       30.04R
$$

VAZ088>098-192200-
SOUTHEAST VIRGINIA

CITY           SKY/WX    TMP DP  RH WIND       PRES   REMARKS
NORFOLK        MOSUNNY   49  37  63 NE6       30.02R
VIRGINIA BEACH CLOUDY    51  36  56 N7        30.02R
NORFOLK NAVAL  PTSUNNY   49  35  58 E7        30.04R
WEST POINT*    MOSUNNY   53  37  55 CALM      30.04R
SALUDA*        FAIR      46  38  75 E5        30.02S
NEWPORT NEWS   PTSUNNY   50  39  66 E9        30.02R
LANGLEY AFB    MOSUNNY   48  37  66 NE7       30.02R
FORT EUSTIS    MOSUNNY   56  38  50 CALM      30.00R
WILLIAMSBURG*  CLOUDY    55  41  58 CALM      30.03
HR EXEC AP*    FAIR      55  37  50 N5        30.00S
FRANKLIN*      SUNNY     56  39  52 W6        30.03R
US460-WAKEFLD  MOSUNNY   56  39  53 VRB3      30.03R
$$

VAZ020-022-025-037-045-192200-
WEST CENTRAL AND SOUTHWEST VIRGINIA

CITY           SKY/WX    TMP DP  RH WIND       PRES   REMARKS
STAUNTON*      CLOUDY    51  39  64 E3        30.00F
WAYNESBORO*    FAIR      53  38  58 CALM      29.99S
HOT SPRINGS VA CLOUDY    48  34  57 W3        29.97F
LYNCHBURG      CLOUDY    57  39  51 S3        30.00F
DANVILLE       SUNNY     60  39  45 CALM      30.00F
SOUTH BOSTON*  FAIR      60  37  42 CALM      30.02S
MARTINSVILLE   SUNNY     60  36  41 CALM      30.02S
ROANOKE        CLOUDY    60  37  42 SE3       30.00F
BLACKSBURG     CLOUDY    57  27  30 CALM      30.00F
DUBLIN*        SUNNY     60  31  33 E6        29.98F
MARION*        MOSUNNY   62  17  17 SW3       29.99S
HILLSVILLE*    CLOUDY    55  39  53 CALM      29.97S
RICHLANDS*     MOCLDY   N/A N/A N/A CALM      29.97S
WISE*          CLOUDY    55  27  33 CALM      29.97F
ABINGDON*      CLOUDY    64  27  25 CALM      29.96F
$$

MDZ021>025-VAZ099-100-192200-
SOUTHERN MARYLAND AND THE DELMARVA PENINSULA

CITY           SKY/WX    TMP DP  RH WIND       PRES   REMARKS
PATUXENT RIVER CLOUDY    48  36  63 SE5       30.03R
BAY BRIDGE APT CLOUDY    48  37  66 S5        30.02S
LEONARDTOWN    CLOUDY    50  36  57 CALM      30.03S
DOVER          MOSUNNY   49  43  79 W7        30.01R
GEORGETOWN     CLOUDY    50  36  58 W8        30.02R
EASTON         MOSUNNY   50  36  57 NW3       30.06R
CAMBRIDGE      MOSUNNY   46  36  66 CALM      30.02S
SALISBURY      CLOUDY    49  37  63 VRB3      30.02R
OCEAN CITY     PTSUNNY   45  38  76 E3        30.02S
WALLOPS ISLAND CLOUDY    47  39  74 SE7       30.02R
ACCOMACK*      CLOUDY    48  37  65 NW6       30.02R
$$

NCZ012>017-030>032-192200-
NORTH CENTRAL AND EASTERN NORTH CAROLINA

CITY           SKY/WX    TMP DP  RH WIND       PRES   REMARKS
ROANOKE RAPIDS FAIR      57  41  54 S3        30.03F
RALEIGH        MOSUNNY   62  38  40 CALM      30.01F
ELIZABETH CITY SUNNY     54  43  66 S7        30.02S
AHOSKIE*         N/A     56  40  54 CALM      30.04R
EDENTON*       SUNNY     56  43  61 CALM      30.04R
CURRITUCK*     SUNNY     52  40  64 E7        30.03R
KILL DEVIL HLS NOT AVBL
MANTEO         SUNNY     49  41  72 E3        30.04R
CAPE HATTERAS  SUNNY     54  42  64 NE5       30.03F
TARBORO*       NOT AVBL
GOLDSBORO      SUNNY     62  42  46 S3        30.00S
WASHINGTON     SUNNY     60  41  50 W3          N/A
GREENVILLE     SUNNY     61  41  48 CALM      30.04F
NEW BERN       SUNNY     59  43  55 E5        30.03S
WILMINGTON     SUNNY     58  44  60 E7        30.03R
$$

VAZ048-192200-
ELSEWHERE

CITY           SKY/WX    TMP DP  RH WIND       PRES   REMARKS
HARRISBURG PA  CLOUDY    48  35  60 CALM      30.00R
BALTIMORE      CLOUDY    50  37  61 W6        30.00S
ANNAPOLIS      MOSUNNY   46  37  71 SE7       30.02R
ANDREWS AFB    CLOUDY    51  36  57 W6        30.01S
PHILADELPHIA   CLOUDY    47  34  60 N8        30.03R
HENDERSON NC   SUNNY     56  37  48 CALM      30.02S
GREENSBORO     PTSUNNY   60  36  40 W6        29.99F
ROCKY MOUNT    SUNNY     59  41  51 CALM      30.02F
$$

VAZ100-192200-
MARINE

STATION/POSITION TIME  TEMP    WIND        PRES    WAVE   SWELL
                       AIR SEA DIR/SP/G            HT/PER HT/PER
                 (UTC) (F)     (DEG/KT/KT) (MB)    (FT/S) (FT/S)
CAPE MAY NJ      2042   46 41  320/  1/  3 1015.6F
LEWES DE         2042   45 42  320/  2/  2 1016.0F
OCEAN-CITY-INLET 2042   44 42   90/  3/  4 1016.5F
WACHAPREAGUE VA  2042   49 49  310/  1/  5 1016.5R
THOMAS POINT MD  2100   45 40  140/  6/  6   N/A
GOOSES REEF MD   2100   44     110/  4/  4 1017.5    0
COVE POINT MD    2042   46      60/  6/  7 1017.4R
SOLOMONS ISLAND  2042   44 41  110/  5/  6   N/A
BISHOPS HEAD MD  2042   45 47  260/  2/  4 1016.7S
PINEY POINT MD   2048          340/  5/  6   N/A
POTOMAC MD       2050   45      70/  4/  4 1016.1R
CAMBRIDGE MD     2042   47 39  320/  1/  2 1016.0R
LEWISETTA VA     2042   49 44   10/  5/  8 1016.6R
RAPPAHANNOCK LGT 2048           20/  8/  8 1017.0R
STINGRAY PT      2050   43      80/  4/  6 1017.0R
YORK RVR RNG VA  2042   45      80/  7/  8 1016.1R
YORKTOWN VA      2042   45 43   90/  9/ 10 1016.3
JAMESTOWN VA     2050   50     280/  4/  6   N/A
DOMINION TERM VA 2042   46      80/  8/ 10 1016.7R
KIPTOPEKE VA     2036      44  340/  5/  6   N/A
CHES BAY BRIDGE  2036   46 46   40/  4/  5 1016.5R
CAPE HENRY VA    2036   47     330/  3/  4   N/A
WILLOUBY STN VA  2036   46      80/  5/  6 1017.7R
S CRANEY ISL VA  2036   49      50/  4/  4 1016.3R
CAPE HENRY BUOY  2042      49                N/A     3/ 9
OFFSHORE WE BUOY 2051      49                N/A     4/10   2/11
64NM E OF VA BCH 2050   48 59  350/ 10/ 12 1016.0F   5/ 9   5/ 9
DUCK PIER NC     2036   50 45  130/  3/  4 1016.1R
44100 DUCK FRF   2035      49                N/A     4/10   2/11
44056 DUCK FRF   2030      46                N/A     4/ 9
OREGON INLET NC  2036   47 49   30/  5/  7 1016.6S
HATTERAS NC      2036   51 54   50/  4/  6 1016.4F
DIAMOND SHLS NC  2050   53 77  360/  8/ 10 1016.7F   5/10   5/10
CAPE LOOKOUT NC  2000   55      60/  6/  8 1016.5F
$$




USA.gov is the U.S. government's official web portal to all federal, state and local government web resources and services.